TimeADT,TemperatureF,Dew PointF,Humidity,Sea Level PressureIn,VisibilityMPH,Wind Direction,Wind SpeedMPH,Gust SpeedMPH,PrecipitationIn,Events,Conditions,WindDirDegrees,DateUTC
12:00 AM,30.2,28.4,93,30.15,10.0,NNW,12.7,25.3,N/A,,Overcast,340,2014-04-20 03:00:00
1:00 AM,30.2,28.4,93,30.17,10.0,North,10.4,-,N/A,,Overcast,350,2014-04-20 04:00:00
2:00 AM,32.0,30.2,93,30.20,15.0,North,9.2,18.4,N/A,,Overcast,350,2014-04-20 05:00:00
3:00 AM,32,30,87,30.22,15,North,11.5,,,,Partly Cloudy,350,2014-04-20 06:00:00
3:00 AM,32.0,30.2,93,30.22,15.0,North,10.4,18.4,N/A,,Overcast,360,2014-04-20 06:00:00
4:00 AM,32.0,30.2,93,30.23,15.0,NNW,9.2,-,N/A,,Scattered Clouds,330,2014-04-20 07:00:00
6:00 AM,33.8,28.4,81,30.29,15.0,NNW,12.7,24.2,N/A,,Overcast,330,2014-04-20 09:00:00
7:00 AM,33.8,26.6,75,30.33,15.0,NNW,12.7,23.0,N/A,,Mostly Cloudy,330,2014-04-20 10:00:00
8:00 AM,32.0,24.8,75,30.35,15.0,NNW,15.0,24.2,N/A,,Mostly Cloudy,340,2014-04-20 11:00:00
9:00 AM,34,23,52,30.38,15,NNW,15.0,,,,Mostly Cloudy,340,2014-04-20 12:00:00
9:00 AM,33.8,23.0,65,30.38,15.0,NNW,13.8,26.5,N/A,,Mostly Cloudy,340,2014-04-20 12:00:00
10:00 AM,33.8,21.2,60,30.40,15.0,North,16.1,21.9,N/A,,Partly Cloudy,350,2014-04-20 13:00:00
11:00 AM,35.6,21.2,56,30.41,15.0,North,13.8,24.2,N/A,,Partly Cloudy,350,2014-04-20 14:00:00
12:00 PM,35.6,19.4,52,30.43,15.0,NW,13.8,21.9,N/A,,Partly Cloudy,320,2014-04-20 15:00:00
1:00 PM,35.6,19.4,52,30.43,15.0,NNW,13.8,-,N/A,,Scattered Clouds,340,2014-04-20 16:00:00
2:00 PM,35.6,21.2,56,30.42,15.0,NNW,10.4,-,N/A,,Scattered Clouds,340,2014-04-20 17:00:00
3:00 PM,38,21,37,30.41,15,NNW,9.2,,,,Scattered Clouds,330,2014-04-20 18:00:00
3:00 PM,39.2,21.2,49,30.41,15.0,NW,8.1,-,N/A,,Mostly Cloudy,320,2014-04-20 18:00:00
4:00 PM,41.0,21.2,45,30.39,15.0,NW,6.9,-,N/A,,Mostly Cloudy,310,2014-04-20 19:00:00
5:00 PM,41.0,17.6,39,30.38,15.0,NNW,9.2,-,N/A,,Scattered Clouds,340,2014-04-20 20:00:00
6:00 PM,42.8,12.2,29,30.36,15.0,NW,5.8,-,N/A,,Mostly Cloudy,310,2014-04-20 21:00:00
7:00 PM,42.8,12.2,29,30.35,15.0,West,3.5,-,N/A,,Scattered Clouds,260,2014-04-20 22:00:00
8:00 PM,41.0,12.2,31,30.34,15.0,SSW,3.5,-,N/A,,Scattered Clouds,200,2014-04-20 23:00:00
8:16 PM,35.6,17.6,48,30.34,15.0,South,6.9,-,N/A,,Partly Cloudy,180,2014-04-20 23:16:00
9:00 PM,36,24,49,30.35,15,SSW,8.1,,,,Clear,210,2014-04-21 00:00:00
9:00 PM,35.6,23.0,60,30.35,15.0,SSW,8.1,-,N/A,,Partly Cloudy,210,2014-04-21 00:00:00
10:00 PM,33.8,23.0,65,30.34,15.0,SSW,8.1,-,N/A,,Mostly Cloudy,210,2014-04-21 01:00:00
11:00 PM,33.8,21.2,60,30.33,15.0,SSW,6.9,-,N/A,,Scattered Clouds,210,2014-04-21 02:00:00